Wisconsin Dells, Wisconsin, United States (53965)
Lat: 43.63N, Lon: 89.77W
Wx Zone: WIZ057
Local Info
Past Weather Observations for Monday, April 14, 2014

NOTE: This archive is for the closest National Weather Service station to Wisconsin Dells. Information may differ from the station used for current weather conditions.

Time Weather Temperature Dewpoint Humidity Pressure Winds Precip Visibility
23:55
Partly Cloudy
21°F / -6°C 19°F / -7°C 93% 30.04 in
(1017 mb)
Calm - 10SM
23:35
Clear
21°F / -6°C 19°F / -7°C 93% 30.04 in
(1017 mb)
Calm - 10SM
23:15
Mostly Cloudy
23°F / -5°C 19°F / -7°C 86% 30.04 in
(1017 mb)
Calm - 10SM
22:55
Overcast
Light Snow
25°F / -4°C 21°F / -6°C 86% 30.04 in
(1017 mb)
Calm - 3/4SM
22:35
Overcast
Light Snow
25°F / -4°C 23°F / -5°C 93% 30.04 in
(1017 mb)
NE 8.1 mph
(NE 13 kph)
- 4SM
22:15
Overcast
Light Snow
25°F / -4°C 23°F / -5°C 93% 30.04 in
(1017 mb)
NE 6.9 mph
(NE 11 kph)
- 1 1/2SM
21:55
Overcast
Light Snow
27°F / -3°C 25°F / -4°C 93% 30.04 in
(1017 mb)
NE 6.9 mph
(NE 11 kph)
- 1 1/4SM
21:35
Overcast
Light Snow
28°F / -2°C 25°F / -4°C 86% 30.04 in
(1017 mb)
Calm - 3SM
21:15
Overcast
28°F / -2°C 23°F / -5°C 80% 30.04 in
(1017 mb)
Calm - 10SM
20:55
Overcast
28°F / -2°C 23°F / -5°C 80% 30.04 in
(1017 mb)
Calm - 10SM
20:35
Overcast
28°F / -2°C 23°F / -5°C 80% 30.04 in
(1017 mb)
Calm - 10SM
20:15
Overcast
28°F / -2°C 25°F / -4°C 86% 30.01 in
(1016 mb)
Calm - 10SM
19:55
Mostly Cloudy
28°F / -2°C 25°F / -4°C 86% 30.01 in
(1016 mb)
Calm - 10SM
19:35
Mostly Cloudy
28°F / -2°C 25°F / -4°C 86% 30.01 in
(1016 mb)
Calm - 10SM
19:15
Overcast
28°F / -2°C 25°F / -4°C 86% 30.01 in
(1016 mb)
Calm - 10SM
18:55
Overcast
28°F / -2°C 25°F / -4°C 86% 29.98 in
(1015 mb)
NW 3.5 mph
(NW 6 kph)
- 10SM
18:35
Mostly Cloudy
28°F / -2°C 25°F / -4°C 86% 29.98 in
(1015 mb)
Calm - 10SM
18:15
Partly Cloudy
30°F / -1°C 23°F / -5°C 75% 29.98 in
(1015 mb)
NW 3.5 mph
(NW 6 kph)
- 10SM
17:55
Mostly Cloudy
30°F / -1°C 25°F / -4°C 80% 29.98 in
(1015 mb)
Calm - 10SM
17:35
Overcast
30°F / -1°C 25°F / -4°C 80% 29.98 in
(1015 mb)
NW 5.8 mph
(NW 9 kph)
- 10SM
17:15
Overcast
30°F / -1°C 25°F / -4°C 80% 29.98 in
(1015 mb)
NW 4.6 mph
(NW 7 kph)
- 10SM
16:55
Overcast
30°F / -1°C 23°F / -5°C 75% 29.95 in
(1014 mb)
NW 6.9 mph
(NW 11 kph)
- 10SM
16:35
Overcast
30°F / -1°C 23°F / -5°C 75% 29.95 in
(1014 mb)
NNW 6.9 mph
(NNW 11 kph)
- 10SM
16:15
Overcast
30°F / -1°C 23°F / -5°C 75% 29.95 in
(1014 mb)
NNW 9.2 mph
(NNW 15 kph)
- 10SM
15:55
Overcast
30°F / -1°C 23°F / -5°C 75% 29.95 in
(1014 mb)
NNW 6.9 mph
(NNW 11 kph)
- 10SM
15:35
Overcast
32°F / 0°C 25°F / -4°C 75% 29.95 in
(1014 mb)
N 8.1 mph
(N 13 kph)
- 10SM
15:15
Overcast
30°F / -1°C 25°F / -4°C 80% 29.95 in
(1014 mb)
NNW 5.8 mph
(NNW 9 kph)
- 10SM
14:55
Overcast
30°F / -1°C 23°F / -5°C 75% 29.95 in
(1014 mb)
NNW 11.5 mph
(NNW 19 kph)
- 10SM
14:35
Overcast
32°F / 0°C 25°F / -4°C 75% 29.95 in
(1014 mb)
N 9.2 mph
(N 15 kph)
- 10SM
14:15
Overcast
32°F / 0°C 25°F / -4°C 75% 29.92 in
(1013 mb)
NNW 11.5 mph
(NNW 19 kph)
- 10SM
13:55
Overcast
32°F / 0°C 25°F / -4°C 75% 29.92 in
(1013 mb)
N 12.7 mph
(N 20 kph)
- 10SM
13:35
Overcast
32°F / 0°C 25°F / -4°C 75% 29.92 in
(1013 mb)
NNW 9.2 mph
(NNW 15 kph)
- 10SM
13:15
Overcast
32°F / 0°C 25°F / -4°C 75% 29.95 in
(1014 mb)
NNW 15 mph
(NNW 24 kph)
- 10SM
12:55
Overcast
32°F / 0°C 25°F / -4°C 75% 29.95 in
(1014 mb)
NNW 8.1 mph
(NNW 13 kph)
- 10SM
12:35
Overcast
30°F / -1°C 25°F / -4°C 80% 29.95 in
(1014 mb)
NNW 10.4 mph
(NNW 17 kph)
- 10SM
12:15
Overcast
30°F / -1°C 25°F / -4°C 80% 29.92 in
(1013 mb)
NNW 10.4 mph
(NNW 17 kph)
- 10SM
11:55
Overcast
32°F / 0°C 25°F / -4°C 75% 29.92 in
(1013 mb)
NNW 6.9 mph
(NNW 11 kph)
- 10SM
11:35
Overcast
32°F / 0°C 25°F / -4°C 75% 29.92 in
(1013 mb)
NNW 9.2 mph
(NNW 15 kph)
- 10SM
11:15
Overcast
30°F / -1°C 25°F / -4°C 80% 29.92 in
(1013 mb)
NNW 5.8 mph
(NNW 9 kph)
- 10SM
10:55
Overcast
30°F / -1°C 25°F / -4°C 80% 29.92 in
(1013 mb)
NNW 8.1 mph
(NNW 13 kph)
- 10SM
10:35
Overcast
30°F / -1°C 25°F / -4°C 80% 29.92 in
(1013 mb)
NNW 10.4 mph
(NNW 17 kph)
- 10SM
10:15
Overcast
30°F / -1°C 25°F / -4°C 80% 29.92 in
(1013 mb)
N 10.4 mph
(N 17 kph)
- 10SM
09:55
Overcast
30°F / -1°C 27°F / -3°C 86% 29.89 in
(1012 mb)
NNW 11.5 mph
(NNW 19 kph)
- 10SM
09:35
Overcast
30°F / -1°C 25°F / -4°C 80% 29.89 in
(1012 mb)
NNW 8.1 mph
(NNW 13 kph)
- 10SM
09:15
Overcast
30°F / -1°C 27°F / -3°C 86% 29.86 in
(1011 mb)
NNW 11.5 mph
(NNW 19 kph)
- 10SM
08:55
Overcast
30°F / -1°C 27°F / -3°C 86% 29.83 in
(1010 mb)
N 15 mph
(N 24 kph)
- 10SM
08:35
Overcast
30°F / -1°C 27°F / -3°C 86% 29.83 in
(1010 mb)
N 9.2 mph
(N 15 kph)
- 10SM
08:15
Overcast
30°F / -1°C 27°F / -3°C 86% 29.8 in
(1009 mb)
N 12.7 mph
(N 20 kph)
- 10SM
07:55
Overcast
30°F / -1°C 27°F / -3°C 86% 29.8 in
(1009 mb)
N 12.7 mph
(N 20 kph)
- 10SM
07:37
Overcast
30°F / -1°C 27°F / -3°C 86% 29.8 in
(1009 mb)
N 10.4 mph
(N 17 kph)
- 10SM
07:35
Overcast
30°F / -1°C 27°F / -3°C 86% 29.8 in
(1009 mb)
NNW 10.4 mph
(NNW 17 kph)
- 7SM
07:15
Overcast
Fog And Mist
30°F / -1°C 28°F / -2°C 93% 29.8 in
(1009 mb)
NNW 12.7 mph
(NNW 20 kph)
- 4SM
06:55
Overcast
Fog And Mist
30°F / -1°C 28°F / -2°C 93% 29.8 in
(1009 mb)
NNW 12.7 mph
(NNW 20 kph)
- 4SM
06:37
Overcast
Light Snow
30°F / -1°C 28°F / -2°C 93% 29.8 in
(1009 mb)
NNW 10.4 mph
(NNW 17 kph)
- 3SM
06:35
Overcast
Light Snow
32°F / 0°C 28°F / -2°C 87% 29.77 in
(1008 mb)
NNW 13.8 mph
(NNW 22 kph)
- 4SM
06:17
Overcast
Light Snow
30°F / -1°C 28°F / -2°C 93% 29.74 in
(1007 mb)
NNW 11.5 mph
(NNW 19 kph)
- 3SM
06:15
Overcast
Light Snow
32°F / 0°C 30°F / -1°C 93% 29.74 in
(1007 mb)
NNW 13.8 mph
(NNW 22 kph)
- 3SM
05:57
Overcast
Light Snow
30°F / -1°C 28°F / -2°C 93% 29.71 in
(1006 mb)
NNW 12.7 mph
(NNW 20 kph)
- 2 1/2SM
05:50
Overcast
Light Snow
32°F / 0°C 30°F / -1°C 93% 29.71 in
(1006 mb)
N 15 mph
(N 24 kph)
- 2SM
05:37
Overcast
Light Snow
30°F / -1°C 30°F / -1°C 100% 29.71 in
(1006 mb)
NNW 10.4 mph
(NNW 17 kph)
- 1 3/4SM
05:35
Overcast
Light Snow
32°F / 0°C 30°F / -1°C 93% 29.71 in
(1006 mb)
NNW 13.8 mph
(NNW 22 kph)
- 1 3/4SM
05:18
Overcast
Light Snow
32°F / 0°C 30°F / -1°C 93% 29.68 in
(1005 mb)
NNW 12.7 mph
(NNW 20 kph)
- 1 1/4SM
05:15
Overcast
Unknown Precip
32°F / 0°C 30°F / -1°C 93% 29.68 in
(1005 mb)
NNW 10.4 mph
(NNW 17 kph)
- 1 1/4SM
04:58
Overcast
Light Snow
32°F / 0°C 30°F / -1°C 93% 29.68 in
(1005 mb)
N 13.8 mph
(N 22 kph)
- 1SM
04:55
Overcast
Light Snow
32°F / 0°C 30°F / -1°C 93% 29.68 in
(1005 mb)
NNW 10.4 mph
(NNW 17 kph)
- 1SM
04:35
Overcast
Light Snow
32°F / 0°C 32°F / 0°C 100% 29.68 in
(1005 mb)
NNW 10.4 mph
(NNW 17 kph)
- 1/2SM
04:18
Overcast
Light Snow
32°F / 0°C 30°F / -1°C 93% 29.65 in
(1004 mb)
NNW 11.5 mph
(NNW 19 kph)
- 3/4SM
04:15
Overcast
Light Snow
32°F / 0°C 32°F / 0°C 100% 29.62 in
(1003 mb)
NNW 11.5 mph
(NNW 19 kph)
- 3/4SM
03:58
Overcast
Snow
32°F / 0°C 30°F / -1°C 93% 29.62 in
(1003 mb)
NNW 12.7 mph
(NNW 20 kph)
- 1/2SM
03:55
Overcast
Snow
32°F / 0°C 32°F / 0°C 100% 29.65 in
(1004 mb)
N 13.8 mph
(N 22 kph)
0.02 in
(0.51 mm)
1/2SM
03:38
Overcast
Snow
32°F / 0°C 30°F / -1°C 93% 29.65 in
(1004 mb)
NNW 13.8 mph
(NNW 22 kph)
0.02 in
(0.51 mm)
1/4SM
03:35
Overcast
Snow
32°F / 0°C 32°F / 0°C 100% 29.65 in
(1004 mb)
N 16.1 mph
(N 26 kph)
0.01 in
(0.25 mm)
1/2SM
03:18
Overcast
Snow
32°F / 0°C 30°F / -1°C 93% 29.65 in
(1004 mb)
NNW 15 mph
(NNW 24 kph)
0.01 in
(0.25 mm)
1/4SM
03:15
Overcast
Snow
32°F / 0°C 32°F / 0°C 100% 29.65 in
(1004 mb)
NNW 16.1 mph
(NNW 26 kph)
0.01 in
(0.25 mm)
1/4SM
02:58
Overcast
Snow
32°F / 0°C 30°F / -1°C 93% 29.65 in
(1004 mb)
NNW 15 mph
(NNW 24 kph)
- 1/2SM
02:55
Overcast
Snow
32°F / 0°C 32°F / 0°C 100% 29.65 in
(1004 mb)
NNW 12.7 mph
(NNW 20 kph)
0.02 in
(0.51 mm)
1/2SM
02:38
Overcast
Light Snow
32°F / 0°C 30°F / -1°C 93% 29.62 in
(1003 mb)
NNW 12.7 mph
(NNW 20 kph)
0.02 in
(0.51 mm)
1/2SM
02:35
Overcast
Light Snow
32°F / 0°C 32°F / 0°C 100% 29.62 in
(1003 mb)
NNW 12.7 mph
(NNW 20 kph)
0.02 in
(0.51 mm)
3/4SM
02:18
Overcast
Light Snow
32°F / 0°C 30°F / -1°C 93% 29.62 in
(1003 mb)
NNW 12.7 mph
(NNW 20 kph)
0.01 in
(0.25 mm)
3/4SM
02:15
Overcast
Unknown Precip
32°F / 0°C 32°F / 0°C 100% 29.62 in
(1003 mb)
NNW 13.8 mph
(NNW 22 kph)
0.01 in
(0.25 mm)
1SM
01:58
Overcast
Unknown Precip
32°F / 0°C 32°F / 0°C 100% 29.59 in
(1002 mb)
NNW 10.4 mph
(NNW 17 kph)
- 1 1/4SM
01:55
Overcast
Unknown Precip
32°F / 0°C 32°F / 0°C 100% 29.59 in
(1002 mb)
NNW 12.7 mph
(NNW 20 kph)
0.05 in
(1.27 mm)
1 1/2SM
01:37
Overcast
Unknown Precip
32°F / 0°C 32°F / 0°C 100% 29.59 in
(1002 mb)
N 9.2 mph
(N 15 kph)
0.04 in
(1.02 mm)
1 1/2SM
01:35
Overcast
Unknown Precip
32°F / 0°C 32°F / 0°C 100% 29.59 in
(1002 mb)
NNW 11.5 mph
(NNW 19 kph)
0.04 in
(1.02 mm)
1 1/4SM
01:18
Overcast
Light Snow
32°F / 0°C 32°F / 0°C 100% 29.56 in
(1001 mb)
N 12.7 mph
(N 20 kph)
0.03 in
(0.76 mm)
1SM
01:15
Overcast
Light Snow
32°F / 0°C 32°F / 0°C 100% 29.56 in
(1001 mb)
N 12.7 mph
(N 20 kph)
0.02 in
(0.51 mm)
1SM
00:58
Overcast
Light Snow
34°F / 1°C 32°F / 0°C 93% 29.56 in
(1001 mb)
N 13.8 mph
(N 22 kph)
- 1 1/4SM
00:55
Overcast
Light Snow
34°F / 1°C 32°F / 0°C 93% 29.56 in
(1001 mb)
N 12.7 mph
(N 20 kph)
0.12 in
(3.05 mm)
1 1/4SM
00:38
Overcast
Unknown Precip
34°F / 1°C 32°F / 0°C 93% 29.56 in
(1001 mb)
N 12.7 mph
(N 20 kph)
0.09 in
(2.29 mm)
2SM
00:35
Overcast
Unknown Precip
34°F / 1°C 32°F / 0°C 93% 29.56 in
(1001 mb)
N 15 mph
(N 24 kph)
0.08 in
(2.03 mm)
2 1/2SM
00:18
Overcast
Rain
36°F / 2°C 34°F / 1°C 93% 29.56 in
(1001 mb)
N 13.8 mph
(N 22 kph)
0.04 in
(1.02 mm)
1 3/4SM
00:15
Overcast
Heavy Rain
36°F / 2°C 34°F / 1°C 93% 29.56 in
(1001 mb)
N 15 mph
(N 24 kph)
0.04 in
(1.02 mm)
1 3/4SM
Time Weather Temperature Dewpoint Humidity Pressure Winds Precip Visibility


Weather for websites

WeatherForYou.com, LLC is not responsible for any damages or problems caused by this service. Current weather conditions are obtained from the closest station including government and personal stations which may have varying degrees of accuracy. Weather forecasts are derived from the NOAA NDFD. Like all things, this site belongs to Jesus Christ... He just trusts me to maintain it. If you have any questions or comments email webmaster@weatherforyou.com

Copyright © 2014, WeatherForYou.com LLC. All rights reserved.